Regional Weather Roundup
Issued by NWS

Home | Current Version | Previous Version | Graphics & Text | Print | Product List | Glossary On
Versions: 1 2 3 4 5 6 7 8 9 10 11 12 13 14 15 16 17 18 19 20 21 22 23 24 25 26 27 28 29 30 31 32 33 34 35 36 37 38 39 40 41 42 43 44 45 46 47 48 49 50
000
ASUS43 KTOP 062008
RWRKS

WEATHER ROUNDUP FOR KANSAS
NATIONAL WEATHER SERVICE GOODLAND KS
200 PM CST FRI MAR 06 2015

NOTE:  "FAIR" INDICATES FEW OR NO CLOUDS BELOW 12,000 FEET WITH NO
SIGNIFICANT WEATHER AND/OR OBSTRUCTIONS TO VISIBILITY.

KSZ001>006-013>018-027>032-041>047-062100-
NORTHWEST KANSAS

CITY           SKY/WX    TMP DP  RH WIND       PRES   REMARKS
GOODLAND       SUNNY     59  15  18 W14G24    30.25
HAYS           SUNNY     63  16  16 W10       30.24F
HILL CITY      SUNNY     64  15  15 W15G25    30.22
RUSSELL        SUNNY     64  15  15 W15G24    30.22
$$

KSZ061>065-074>080-084>089-062100-
SOUTHWEST KANSAS

CITY           SKY/WX    TMP DP  RH WIND       PRES   REMARKS
DODGE CITY     SUNNY     63  15  15 NW13      30.28
ELKHART          N/A     60  20  21 E2          N/A
GARDEN CITY    SUNNY     58  14  17 SW8       30.28
GREAT BEND     SUNNY     63  18  17 SW15G22   30.25F
LIBERAL        SUNNY     57  19  23 CALM      30.32F
PRATT          SUNNY     59  30  33 SW9       30.29F
$$

KSZ066>073-081>083-090>101-062100-
SOUTHEAST KANSAS

CITY           SKY/WX    TMP DP  RH WIND       PRES   REMARKS
CHANUTE        SUNNY     56  29  35 SW17G25   30.33
COFFEYVILLE    SUNNY     56  28  34 SW15G23   30.36
HUTCHINSON     SUNNY     62  27  26 SW14      30.27
MEDICINE LODGE   N/A     59  26  28 SW7       30.29
NEWTON         SUNNY     57  30  35 SW17      30.30F
PARSONS        SUNNY     56  29  35 SW16G23   30.36
WICHITA INTL   SUNNY     58  28  32 SW22      30.30
WICHITA JABRA  SUNNY     57  28  33 SW18G24   30.30
WICHITA MCCONL SUNNY     57  29  33 S17G25    30.30F
WINFIELD       SUNNY     57  30  35 SW17      30.35
$$

KSZ007>012-019>026-033>040-048>060-102>105-062100-
NORTHEAST KANSAS

CITY           SKY/WX    TMP DP  RH WIND       PRES   REMARKS
CONCORDIA      SUNNY     62  17  17 W22       30.21
EMPORIA        SUNNY     58  27  30 SW20G25   30.27
LAWRENCE       SUNNY     57  25  29 SW13G20   30.26
MANHATTAN      SUNNY     60  19  20 MISG      30.24
MARYSVILLE     SUNNY     61  21  21 W15G23    30.21F
OLATHE IND     SUNNY     54  30  40 SW15      30.27
OLATHE EXE     SUNNY     53  28  38 SW15G24   30.26
SALINA         SUNNY     65  15  14 W14G23    30.24
TOPEKA BILLARD SUNNY     59  22  24 W12G22    30.25
TOPEKA FORBES  SUNNY     61  23  23 SW10G18   30.25
$$


USA.gov is the U.S. government's official web portal to all federal, state and local government web resources and services.